Torna al catalogo

YAOGAN 9A

AttivoMilitareLEO
NORAD 36413·PAYLOAD·🇨🇳 China

Lanciato Mar 5, 2010 da Jiuquan Satellite Launch Center

Loading…

Prossimi Passaggi (prossime 24 ore)

TLE

AggiornatoSource: Space-Track

Epoca: Sep 14, 2026, 14:16 UTC

1 36413U 10009A   26257.59498050 -.00000001  00000-0  62968-4 0  9996
2 36413  63.3623 126.8231 0545135  22.4622 339.9315 13.45716935812004

Traccia YAOGAN 9A in tempo reale con AllMySat

Download on the App Store